TimeEST,TemperatureF,Dew PointF,Humidity,Sea Level PressureIn,VisibilityMPH,Wind Direction,Wind SpeedMPH,Gust SpeedMPH,PrecipitationIn,Events,Conditions,WindDirDegrees,DateUTC
12:56 AM,28.9,18.0,64,30.50,-9999.0,SSW,3.5,-,N/A,,Unknown,200,2012-11-17 05:56:00
1:56 AM,28.0,18.0,66,30.49,-9999.0,SSW,5.8,-,N/A,,Unknown,210,2012-11-17 06:56:00
2:56 AM,28.9,18.0,64,30.49,-9999.0,SSW,4.6,-,N/A,,Unknown,210,2012-11-17 07:56:00
3:56 AM,28.0,19.0,69,30.51,-9999.0,SW,3.5,-,N/A,,Unknown,220,2012-11-17 08:56:00
4:56 AM,24.1,19.0,81,30.50,-9999.0,South,4.6,-,N/A,,Unknown,170,2012-11-17 09:56:00
5:56 AM,24.1,19.0,81,30.51,-9999.0,Calm,Calm,-,N/A,,Unknown,0,2012-11-17 10:56:00
6:56 AM,28.9,23.0,78,30.50,-9999.0,Calm,Calm,-,N/A,,Unknown,0,2012-11-17 11:56:00
7:56 AM,30.9,25.0,79,30.50,-9999.0,Calm,Calm,-,N/A,,Unknown,0,2012-11-17 12:56:00
8:56 AM,34.0,26.1,73,30.49,-9999.0,South,8.1,-,N/A,,Unknown,190,2012-11-17 13:56:00
9:56 AM,36.0,28.0,73,30.50,-9999.0,SSW,8.1,16.1,N/A,,Unknown,200,2012-11-17 14:56:00
10:56 AM,39.9,30.9,70,30.49,-9999.0,South,9.2,-,N/A,,Unknown,180,2012-11-17 15:56:00
11:56 AM,44.1,33.1,65,30.47,-9999.0,SSW,16.1,25.3,N/A,,Unknown,200,2012-11-17 16:56:00
12:56 PM,46.0,34.0,63,30.45,-9999.0,South,10.4,20.7,N/A,,Unknown,190,2012-11-17 17:56:00
1:56 PM,48.9,35.1,59,30.44,-9999.0,South,9.2,19.6,N/A,,Unknown,180,2012-11-17 18:56:00
2:56 PM,50.0,35.1,57,30.42,-9999.0,South,11.5,19.6,N/A,,Unknown,190,2012-11-17 19:56:00
3:56 PM,48.9,35.1,59,30.43,-9999.0,South,10.4,17.3,N/A,,Unknown,180,2012-11-17 20:56:00
4:56 PM,46.0,35.1,66,30.44,-9999.0,South,9.2,-,N/A,,Unknown,180,2012-11-17 21:56:00
5:56 PM,43.0,35.1,74,30.44,-9999.0,South,8.1,-,N/A,,Unknown,190,2012-11-17 22:56:00
6:56 PM,42.1,36.0,79,30.43,-9999.0,South,9.2,-,N/A,,Unknown,190,2012-11-17 23:56:00
7:56 PM,42.1,36.0,79,30.43,-9999.0,South,8.1,-,N/A,,Unknown,190,2012-11-18 00:56:00
8:56 PM,41.0,37.0,86,30.43,-9999.0,South,6.9,-,N/A,,Unknown,180,2012-11-18 01:56:00
9:56 PM,41.0,37.0,86,30.43,-9999.0,South,8.1,-,N/A,,Unknown,190,2012-11-18 02:56:00
10:56 PM,42.1,37.0,82,30.43,-9999.0,South,9.2,-,N/A,,Unknown,180,2012-11-18 03:56:00
11:56 PM,43.0,37.9,82,30.43,-9999.0,South,9.2,-,N/A,,Unknown,180,2012-11-18 04:56:00